Terug naar catalogus

STARLINK-34856

ActiefCommunicatieVLEO
NORAD 65687·PAYLOAD·🇺🇸 United States

Gelanceerd Sep 21, 2025 vanaf Cape Canaveral Space Force Station

Loading…

Volgende Passages (komende 24 uur)

TLE

VersSource: CelesTrak SupGP

Epoch: Sep 15, 2026, 02:36 UTC

1 65687C 25212M   26258.10881944 -.00054497  00000+0 -17528-2 0  2585
2 65687  53.1578 184.4142 0001343  83.5736 312.0762 15.31724084    17

Volg STARLINK-34856 in realtime met AllMySat

Download on the App Store